Location: Moscow
(55.7500°N, 37.5830°E)
Time: 14:02:58
(UTC+03:00)

Vanguard 1 - Pass Details

Date: 04 December 2021
Orbit: 652 x 3830 km, 34.2° (Epoch: 25 January)

Event Time Altitude Azimuth Distance (km) Brightness Sun altitude
Exits shadow 01:50:57 29° 136° (SE) 4,950 13.4 -52.5°
Drops below altitude 10° 01:59:41 10° 112° (ESE) 5,802 14.0 -51.7°
Sets 02:03:56 0° 104° (ESE) 6,440 14.5 -51.3°
